Home   Weather   Kingston   Past weeks
Flag for Norfolk Island

Past Weather in Kingston, Norfolk Island — Yesterday and Last 2 Weeks

Now
75 °F

Low clouds.


Feels Like: N/A
Forecast: 77 / 74 °F
Wind: 16 mph from East

Location: Norfolk Island Airport

Current Time: Feb 18, 2019 at 3:40:15 pm

Latest Report: Feb 18, 2019 at 3:23 pm


Visibility: N/A

Pressure: 29.80 "Hg

Humidity: N/A

Dew Point: N/A

Location of KingstonLocation

Past Weather in Kingston — Graph

°F

Kingston Temperature Yesterday

Maximum temperature yesterday: 73 °F (at 10:30 am)
Minimum temperature yesterday: 68 °F (at 8:00 am)
Average temperature yesterday: 71 °F

High & Low Weather Summary for the Past Weeks

 TemperatureHumidityPressure
High81 °F (Feb 13, 11:00 am)100% (Feb 17, 6:30 pm)30.04 "Hg (Feb 17, 6:30 pm)
Low68 °F (Feb 6, 1:34 am)61% (Feb 4, 9:30 am)29.71 "Hg (Feb 10, 6:00 pm)
Average73 °F79%29.86 "Hg
* Reported Feb 3 2:00 pm — Feb 18 2:35 pm, Kingston. Weather by CustomWeather, © 2019

Note: Actual official high and low records may vary slightly from our data, if they occured in-between our weather recording intervals... More about our weather records

Advertising

Kingston Weather History for the Previous 24 Hours

Scroll right to see more
 ConditionsComfort  
Time TempWeatherWind HumidityBarometerVisibility
2:35 pm
Mon, Feb 18
73 °FDrizzle. Low clouds.20 mphN/A29.80 "Hg4 mi
2:00 pm73 °FLow clouds.18 mphN/A29.83 "HgN/A
1:30 pm73 °FSprinkles. Low clouds.17 mphN/A29.83 "Hg2 mi
1:00 pm73 °FDrizzle. Low clouds.17 mph100%29.83 "Hg2 mi
12:30 pm73 °FDrizzle. Low clouds.17 mph100%29.86 "Hg2 mi
12:12 pm75 °FLow clouds.15 mph94%29.86 "Hg4 mi
12:00 pm75 °FLow clouds.17 mph94%29.86 "HgN/A
11:00 am75 °FLow clouds.17 mph94%29.86 "Hg6 mi
10:30 am73 °FLow clouds.18 mph100%29.86 "Hg5 mi
10:00 am73 °FSprinkles. Low clouds.20 mph100%29.86 "Hg2 mi
9:39 am73 °FLow clouds.18 mph100%29.86 "Hg4 mi
9:30 am73 °FMostly cloudy.17 mph100%29.86 "Hg5 mi
9:00 am73 °FDrizzle. Low clouds.17 mph100%29.86 "Hg1 mi
8:30 am73 °FDrizzle. Low clouds.15 mph100%29.86 "Hg1 mi
8:00 am73 °FDrizzle. Low clouds.16 mph100%29.86 "Hg1 mi
7:30 am73 °FDrizzle. Low clouds.16 mph100%29.83 "Hg2 mi
7:00 am72 °FDrizzle. Low clouds.17 mph100%29.83 "Hg1 mi
6:32 am72 °FDrizzle. Low clouds.17 mph100%29.83 "Hg1 mi
6:00 am72 °FDrizzle. Low clouds.15 mph100%29.83 "Hg2 mi
5:30 am72 °FDrizzle. Low clouds.17 mph100%29.83 "Hg1 mi
5:00 am72 °FDrizzle. Low clouds.13 mph100%29.83 "Hg1 mi
4:30 am72 °FDrizzle. Low clouds.17 mph100%29.80 "Hg2 mi
4:00 am72 °FDrizzle. Low clouds.16 mph100%29.80 "Hg1 mi
3:30 am72 °FDrizzle. Low clouds.16 mph100%29.80 "Hg1 mi
3:00 am72 °FLow clouds.16 mph100%29.80 "Hg4 mi
2:32 am72 °FLow clouds.16 mph100%29.80 "Hg4 mi
2:20 am72 °FLow clouds.17 mph100%29.83 "HgN/A
2:00 am72 °FLow clouds.16 mph100%29.83 "Hg3 mi
1:30 am72 °FDrizzle. Low clouds.17 mph100%29.83 "Hg1 mi
1:00 am72 °FSprinkles. Low clouds.17 mph100%29.83 "Hg2 mi
12:30 am72 °FSprinkles. Low clouds.13 mph100%29.83 "Hg3 mi
12:14 am72 °FLow clouds.16 mph100%29.83 "Hg4 mi
11:30 pm
Sun, Feb 17
72 °FLow clouds.15 mph100%29.86 "HgN/A
11:00 pm72 °FDrizzle. Low clouds.15 mph94%29.86 "Hg2 mi
10:30 pm70 °FDrizzle. Low clouds.16 mph100%29.86 "Hg2 mi
10:00 pm70 °FDrizzle. Low clouds.16 mph100%29.86 "Hg1 mi
9:30 pm70 °FDrizzle. Low clouds.14 mph100%29.86 "Hg2 mi
9:00 pm70 °FDrizzle. Low clouds.13 mph100%29.86 "Hg2 mi
8:30 pm70 °FDrizzle. Low clouds.15 mph100%29.86 "Hg1 mi
8:00 pm70 °FSprinkles. Low clouds.16 mph100%29.86 "Hg1 mi
7:30 pm70 °FSprinkles. Low clouds.16 mph100%29.86 "Hg2 mi
7:00 pm70 °FSprinkles. Low clouds.15 mph100%29.83 "Hg2 mi
6:30 pm70 °FDrizzle. Low clouds.16 mph100%29.83 "Hg2 mi
6:00 pm70 °FLow clouds.16 mph94%29.83 "Hg4 mi
5:25 pm70 °FLow clouds.17 mph94%29.83 "HgN/A
5:00 pm70 °FLow clouds.15 mph94%29.80 "Hg2 mi
4:39 pm72 °FLow clouds.17 mph88%29.80 "HgN/A
4:10 pm72 °FLow clouds.18 mph88%29.80 "HgN/A
3:30 pm72 °FLow clouds.15 mph88%29.80 "HgN/A
3:00 pm72 °FOvercast.16 mph88%29.80 "Hg5 mi
Weather by CustomWeather, © 2019

See weather overview